[[{"header":{"parameterUnit":"m.s-1","parameterCategory":1,"la1":30.2991,"la2":30.254,"lo1":-89.0895,"lo2":-89.0444,"dy":0.0017,"dx":0.0017,"nx":28,"ny":28,"refTime":"2025-01-01T03:00:00:Z","depth":0,"parameterNumber":2,"parameterNumberName":"U-component_of_WINDS"},"data":[0,0,0,0,0,0,0,0,0,0,0,0,0,0,0,0,0,0,0,0,0,0,0,0,0,0,0,0,0,0,0,0,0,0,0,0,0,0,0,0,0,0,0,0,0,0,0,0,0,0,0,0,0,0,0,0,0,0,0.6561,0.6561,0,0.6636,0.6637,0.6638,0.6681,0.6681,0.6681,0.6682,0.676,0.6761,0.6763,0,0,0,0,0,0,0,0,0,0,0,0,0,0.6454,0.6456,0.656,0.6561,0.6562,0.6636,0.6637,0.6638,0.6681,0.6681,0.6681,0.6682,0.6759,0.6761,0.6764,0,0,0,0,0,0,0,0,0,0,0,0,0,0.6512,0.6457,0.656,0.6593,0.6596,0.6636,0.6637,0.6639,0.6681,0.6681,0.6682,0.6682,0.6758,0.6761,0.6764,0.6778,0,0,0.6773,0.6774,0,0,0,0,0,0,0,0,0.6509,0.6516,0.6587,0.659,0.6595,0.665,0.6629,0.6685,0.6681,0.6649,0.6682,0.6682,0.6723,0.6729,0.6742,0.6781,0.6785,0.6773,0.6775,0.6776,0.6777,0,0,0,0,0,0,0,0.6505,0.6513,0.6591,0.6588,0.6593,0.6604,0.6612,0.6639,0.6684,0.6652,0.6655,0.6663,0.6725,0.6739,0.6745,0.6786,0.6773,0.6776,0.6777,0.6779,0.6842,0.6842,0,0,0,0,0,0,0.6495,0.6509,0.6588,0.6593,0.6551,0.6606,0.6615,0.6632,0.6684,0.6692,0.6663,0.6665,0.6734,0.6741,0.6747,0.6768,0.6776,0.6779,0.678,0.6842,0.6842,0.6842,0,0,0,0,0,0,0.6493,0.6502,0.6585,0.6552,0.6564,0.6607,0.6625,0.6633,0.6648,0.6692,0.67,0.667,0.6735,0.6743,0.677,0.6771,0.678,0.6783,0.6842,0.6842,0.6842,0.6808,0,0,0,0,0,0,0.649,0.6501,0.6506,0.6552,0.6565,0.6606,0.6626,0.6634,0.6652,0.6656,0.6701,0.6708,0.6736,0.6766,0.6773,0.6775,0.6785,0.6842,0.6842,0.6842,0.6809,0.6807,0.6805,0,0,0,0,0,0.6486,0.6493,0.6506,0.6515,0.6572,0.6606,0.6613,0.6645,0.6652,0.6658,0.6687,0.6707,0.677,0.6768,0.6777,0.678,0.6842,0.6842,0.6842,0.681,0.6807,0.6805,0,0,0,0,0,0,0.6446,0.65,0.6514,0.6537,0.6566,0.6613,0.6621,0.664,0.6668,0.667,0.6708,0.6718,0.6742,0.6764,0.676,0.6797,0.6808,0.681,0.6782,0.6779,0.6777,0.6771,0.6787,0,0,0,0,0,0.644,0.6462,0.6508,0.6523,0.6537,0.6577,0.6592,0.6614,0.6646,0.6659,0.669,0.6721,0.6748,0.6765,0.6792,0.6813,0.6824,0.682,0.6818,0.6816,0.6816,0.6831,0.683,0.6841,0.6841,0.6841,0,0,0.6427,0.6459,0.6471,0.6516,0.6542,0.6565,0.6587,0.661,0.6627,0.6663,0.669,0.6714,0.6751,0.6775,0.6788,0.6795,0.6816,0.6815,0.6813,0.6816,0.6831,0.683,0.6829,0.6841,0.6841,0.6841,0,0,0.6416,0.6442,0.6458,0.6484,0.6522,0.6549,0.6552,0.6597,0.6614,0.6642,0.667,0.6692,0.6737,0.6763,0.6782,0.6783,0.6802,0.6791,0.6779,0.6792,0.6791,0.6791,0.6792,0.6792,0.6791,0.6791,0.6791,0,0.6395,0.643,0.6464,0.6486,0.6506,0.6539,0.6557,0.658,0.6625,0.6638,0.6646,0.6705,0.6732,0.6763,0.6764,0.6778,0.6784,0.6785,0.6789,0.6789,0.6788,0.679,0.679,0.679,0.679,0.679,0.679,0,0.6403,0.6427,0.6436,0.648,0.65,0.652,0.6558,0.6575,0.6595,0.6621,0.6651,0.6685,0.672,0.673,0.675,0.6765,0.6768,0.6781,0.6793,0.6785,0.6787,0.6788,0.6787,0.6788,0.6788,0.6789,0,0,0.6367,0.6431,0.6433,0.6454,0.65,0.652,0.6542,0.6577,0.6591,0.6622,0.6642,0.6681,0.6694,0.6716,0.6739,0.6751,0.6751,0.6764,0.6765,0.6761,0.6771,0.6761,0.6761,0.6765,0.6765,0.6765,0.6769,0,0.6363,0.6403,0.6435,0.6464,0.6487,0.6521,0.654,0.6571,0.6596,0.662,0.6649,0.6676,0.6691,0.6704,0.6718,0.6748,0.6754,0.6748,0.6784,0.6785,0.6774,0.6762,0.6751,0.6752,0.677,0.677,0.677,0,0.6362,0.6393,0.6423,0.6469,0.648,0.6496,0.6532,0.6555,0.6591,0.6609,0.6634,0.6659,0.6685,0.6695,0.6731,0.6727,0.6744,0.6761,0.6762,0.6767,0.6777,0.6767,0.6753,0.6754,0.6771,0.6771,0.6771,0,0.6334,0.6382,0.6407,0.6424,0.6477,0.6488,0.6511,0.6548,0.6568,0.6599,0.6612,0.6646,0.6665,0.6691,0.6725,0.6729,0.6759,0.6772,0.6775,0.6775,0.678,0.6779,0.6769,0.679,0.679,0.679,0.679,0,0.6325,0.6343,0.6395,0.6411,0.6432,0.647,0.649,0.6516,0.6549,0.657,0.6602,0.6622,0.6665,0.6691,0.6718,0.6745,0.6753,0.6769,0.6776,0.6766,0.6764,0.6777,0.6778,0.679,0.679,0.679,0.679,0,0.6297,0.6332,0.6362,0.6411,0.6423,0.6437,0.6479,0.6496,0.6524,0.6551,0.656,0.6603,0.6636,0.6672,0.6716,0.6735,0.676,0.677,0.6747,0.6751,0.6753,0.6753,0.6752,0.6754,0.6773,0.6773,0.6772,0,0.6289,0.6303,0.6354,0.6371,0.6393,0.6419,0.644,0.6478,0.6498,0.6542,0.6554,0.6589,0.6618,0.6668,0.6704,0.6739,0.675,0.6748,0.6755,0.6746,0.6751,0.675,0.6752,0.6745,0.6745,0.6744,0.6744,0,0.6271,0.6289,0.6317,0.6352,0.6375,0.6405,0.6435,0.6448,0.6492,0.6514,0.6547,0.657,0.6616,0.665,0.6689,0.6714,0.6737,0.6741,0.6744,0.6734,0.6721,0.6729,0.6742,0.6741,0.6741,0.6742,0.6742,0.6742,0.6253,0.6268,0.6307,0.6337,0.6365,0.6393,0.6412,0.6443,0.6471,0.6511,0.6532,0.6565,0.6604,0.6659,0.6683,0.671,0.6718,0.6722,0.6723,0.6723,0.6721,0.6717,0.6718,0.6718,0.6718,0.6718,0.6718,0,0.6238,0.6265,0.6293,0.6335,0.636,0.6379,0.6415,0.6435,0.6463,0.6497,0.6526,0.6565,0.6599,0.6639,0.6676,0.669,0.6702,0.6699,0.6698,0.6703,0.6712,0.6706,0.6689,0.6689,0.6689,0.6689,0.6689,0.6689,0.6233,0.626,0.6282,0.6323,0.635,0.6383,0.6402,0.6429,0.6456,0.6498,0.6527,0.6553,0.6589,0.663,0.6662,0.6673,0.6686,0.6679,0.6693,0.67,0.6703,0.6705,0.67,0.6682,0.6682,0.6683,0.6683,0.6683]},{"header":{"parameterUnit":"m.s-1","parameterCategory":1,"la1":30.2991,"la2":30.254,"lo1":-89.0895,"lo2":-89.0444,"dy":0.0017,"dx":0.0017,"nx":28,"ny":28,"refTime":"2025-01-01T03:00:00:Z","depth":0,"parameterNumber":3,"parameterNumberName":"V-component_of_WINDS"},"data":[0,0,0,0,0,0,0,0,0,0,0,0,0,0,0,0,0,0,0,0,0,0,0,0,0,0,0,0,0,0,0,0,0,0,0,0,0,0,0,0,0,0,0,0,0,0,0,0,0,0,0,0,0,0,0,0,0,0,-6.64,-6.6402,0,-6.6588,-6.659,-6.6592,-6.6579,-6.6576,-6.6573,-6.6571,-6.6759,-6.6766,-6.6774,0,0,0,0,0,0,0,0,0,0,0,0,0,-6.6024,-6.6031,-6.6399,-6.6402,-6.6404,-6.6588,-6.659,-6.6593,-6.6579,-6.6576,-6.6573,-6.6569,-6.6756,-6.6765,-6.6774,0,0,0,0,0,0,0,0,0,0,0,0,0,-6.6197,-6.6033,-6.6399,-6.642,-6.6423,-6.6587,-6.6591,-6.6594,-6.658,-6.6576,-6.6572,-6.6568,-6.6753,-6.6764,-6.6776,-6.693,0,0,-6.681,-6.6815,0,0,0,0,0,0,0,0,-6.6188,-6.6211,-6.6414,-6.6419,-6.6423,-6.6556,-6.6527,-6.6706,-6.6581,-6.652,-6.6571,-6.6566,-6.6694,-6.671,-6.6755,-6.6939,-6.6947,-6.6811,-6.6818,-6.6823,-6.6826,0,0,0,0,0,0,0,-6.6176,-6.6203,-6.6474,-6.6417,-6.6423,-6.6418,-6.6438,-6.6561,-6.6628,-6.6525,-6.6525,-6.6548,-6.6696,-6.6744,-6.6759,-6.6949,-6.6811,-6.6821,-6.6828,-6.6833,-6.7271,-6.7276,0,0,0,0,0,0,-6.6159,-6.6193,-6.6468,-6.648,-6.6293,-6.6429,-6.6451,-6.6517,-6.6627,-6.664,-6.6551,-6.6546,-6.6726,-6.6746,-6.6765,-6.6955,-6.6823,-6.6834,-6.684,-6.7267,-6.7272,-6.7278,0,0,0,0,0,0,-6.6151,-6.6184,-6.646,-6.6336,-6.6371,-6.644,-6.6514,-6.6523,-6.6571,-6.6647,-6.6658,-6.6588,-6.6724,-6.6749,-6.689,-6.6961,-6.6839,-6.6849,-6.7261,-6.7268,-6.7275,-6.7334,0,0,0,0,0,0,-6.6141,-6.6181,-6.6241,-6.6338,-6.6378,-6.6583,-6.6519,-6.653,-6.6592,-6.6587,-6.6684,-6.6696,-6.6722,-6.6873,-6.6901,-6.6975,-6.6858,-6.7255,-6.7264,-6.7273,-6.7326,-6.7342,-6.7356,0,0,0,0,0,-6.6127,-6.6249,-6.6244,-6.6278,-6.6455,-6.6587,-6.661,-6.6639,-6.6597,-6.6658,-6.6707,-6.6693,-6.6949,-6.6887,-6.6919,-6.6997,-6.725,-6.7262,-6.7272,-6.7319,-6.7339,-6.7356,0,0,0,0,0,0,-6.6156,-6.6262,-6.6258,-6.6414,-6.6492,-6.6584,-6.6662,-6.6659,-6.6749,-6.6741,-6.6772,-6.6794,-6.6935,-6.698,-6.691,-6.7153,-6.7094,-6.7112,-6.7119,-6.7139,-6.7153,-6.714,-6.6868,0,0,0,0,0,-6.6181,-6.6281,-6.6367,-6.6497,-6.6537,-6.6593,-6.6651,-6.6668,-6.6748,-6.6781,-6.6839,-6.6917,-6.7016,-6.7079,-6.7173,-6.7332,-6.7354,-6.7402,-6.7417,-6.7429,-6.7444,-6.7533,-6.7555,-6.7313,-6.7313,-6.7313,0,0,-6.6233,-6.6303,-6.6364,-6.6505,-6.6567,-6.6669,-6.662,-6.673,-6.6806,-6.6797,-6.6934,-6.698,-6.7069,-6.722,-6.7289,-6.7261,-6.7516,-6.7443,-6.7452,-6.746,-6.7546,-6.7569,-6.7589,-6.732,-6.7319,-6.7318,0,0,-6.638,-6.6443,-6.6559,-6.6623,-6.6719,-6.6756,-6.6783,-6.6877,-6.6908,-6.7047,-6.7043,-6.7133,-6.7301,-6.7365,-6.742,-6.7594,-6.7585,-6.7624,-6.7703,-6.7789,-6.7808,-6.7825,-6.7889,-6.7911,-6.7638,-6.7638,-6.7639,0,-6.6432,-6.6587,-6.6618,-6.6731,-6.6793,-6.6792,-6.691,-6.6969,-6.709,-6.7133,-6.7101,-6.7313,-6.7373,-6.754,-6.7583,-6.7626,-6.7659,-6.7613,-6.7803,-6.7821,-6.7837,-6.7898,-6.7922,-6.7643,-6.7642,-6.7642,-6.7641,0,-6.6647,-6.6755,-6.6837,-6.6957,-6.7028,-6.7142,-6.719,-6.7259,-6.7269,-6.7309,-6.7451,-6.7523,-6.7633,-6.7673,-6.7683,-6.7843,-6.7823,-6.7797,-6.7738,-6.7864,-6.7922,-6.7945,-6.7649,-6.7647,-6.7646,-6.7645,0,0,-6.6816,-6.6954,-6.6984,-6.7039,-6.7145,-6.7229,-6.7343,-6.7453,-6.7512,-6.7595,-6.7692,-6.7835,-6.7813,-6.7875,-6.7892,-6.7968,-6.8103,-6.7933,-6.7936,-6.7963,-6.8285,-6.8304,-6.833,-6.8098,-6.8103,-6.8106,-6.8277,0,-6.6975,-6.718,-6.7212,-6.7391,-6.7492,-6.7494,-6.7593,-6.7669,-6.771,-6.7801,-6.7845,-6.7947,-6.7909,-6.7947,-6.8022,-6.8071,-6.8168,-6.8059,-6.8188,-6.8192,-6.8167,-6.836,-6.8381,-6.8539,-6.83,-6.8304,-6.8307,0,-6.7187,-6.728,-6.747,-6.7566,-6.7609,-6.7698,-6.7802,-6.7889,-6.7975,-6.8,-6.8071,-6.808,-6.8198,-6.8134,-6.8297,-6.8222,-6.8277,-6.831,-6.8316,-6.833,-6.8257,-6.838,-6.859,-6.8614,-6.8342,-6.8339,-6.8337,0,-6.7293,-6.7465,-6.7602,-6.7649,-6.7763,-6.7826,-6.7876,-6.7958,-6.8023,-6.8114,-6.8156,-6.8258,-6.8314,-6.8393,-6.8429,-6.8379,-6.8591,-6.8529,-6.8614,-6.8613,-6.8659,-6.8655,-6.8881,-6.8693,-6.8692,-6.8692,-6.8691,0,-6.7468,-6.7584,-6.7651,-6.7735,-6.7866,-6.7902,-6.8031,-6.8079,-6.8152,-6.8245,-6.8252,-6.8339,-6.8381,-6.8474,-6.8503,-6.8635,-6.866,-6.8682,-6.8689,-6.8683,-6.868,-6.8719,-6.8709,-6.8698,-6.8697,-6.8695,-6.8694,0,-6.7608,-6.7658,-6.7807,-6.7904,-6.7931,-6.8024,-6.8106,-6.8188,-6.8229,-6.8347,-6.8376,-6.844,-6.8551,-6.8595,-6.8729,-6.8748,-6.89,-6.8898,-6.8872,-6.8874,-6.8957,-6.8949,-6.9216,-6.9254,-6.904,-6.9042,-6.9043,0,-6.7716,-6.7806,-6.7914,-6.7978,-6.8031,-6.8134,-6.8201,-6.824,-6.8309,-6.8415,-6.8484,-6.8595,-6.8686,-6.8862,-6.8919,-6.9022,-6.9023,-6.9109,-6.9038,-6.903,-6.9025,-6.902,-6.903,-6.9122,-6.9125,-6.9126,-6.9128,0,-6.7903,-6.7924,-6.8021,-6.8129,-6.8209,-6.8294,-6.8377,-6.8429,-6.848,-6.8558,-6.8672,-6.8743,-6.8882,-6.8992,-6.9099,-6.9149,-6.9148,-6.915,-6.9175,-6.917,-6.9152,-6.9164,-6.8909,-6.9144,-6.9142,-6.9141,-6.914,-6.9139,-6.8032,-6.8113,-6.8203,-6.8311,-6.8378,-6.8457,-6.8539,-6.8592,-6.8688,-6.8806,-6.8823,-6.8945,-6.9031,-6.9174,-6.9229,-6.9325,-6.9303,-6.9339,-6.9348,-6.9357,-6.9363,-6.9137,-6.9344,-6.9344,-6.9344,-6.9343,-6.9343,0,-6.822,-6.8279,-6.8378,-6.8496,-6.8582,-6.8576,-6.8668,-6.8739,-6.8848,-6.8929,-6.9019,-6.9151,-6.9258,-6.9326,-6.9434,-6.9498,-6.95,-6.9525,-6.9521,-6.9533,-6.9376,-6.9344,-6.9521,-6.9521,-6.9521,-6.9521,-6.9521,-6.9521,-6.8329,-6.8466,-6.8498,-6.867,-6.8727,-6.8849,-6.8903,-6.8975,-6.904,-6.9188,-6.9278,-6.9322,-6.9398,-6.9512,-6.961,-6.9627,-6.9667,-6.9694,-6.9709,-6.9562,-6.9543,-6.9526,-6.9496,-6.9702,-6.9702,-6.9857,-6.9859,-6.986]}]]